{"data":{"norad_id":68101,"intl_designator":"2026-044A","name":"STARLINK-37022","alt_names":[],"object_type":"PAYLOAD","status":"ACTIVE","operator":null,"country":"US","launch_date":"2026-03-08","launch_site_code":"AFWTR","launch_vehicle":null,"mission":null,"orbit_class":"UNKNOWN","rcs_meters":null,"size_class":null,"mass_kg":null,"dimensions":null,"purposes":["comms"],"wikipedia_slug":null,"has_3d_model":false,"image_url":null,"decayed_at":null,"tle_current":{"epoch":"2026-09-19T03:17:05.024544Z","epoch_age_seconds":173552,"freshness":"STALE","line1":"1 68101U 26044A   26262.13686371  .00023738  00000+0  73454-3 0  9993","line2":"2 68101  97.2828 221.0287 0002962  91.4322 268.7260 15.33474681 31227","mean_motion":15.33474681,"eccentricity":0.0002962,"inclination_deg":97.2828,"raan_deg":221.0287,"arg_perigee_deg":91.4322,"mean_anomaly_deg":268.726,"bstar":0.00073454,"rev_number":3122,"period_min":93.904387065651,"perigee_km":463.42779421814,"apogee_km":467.48193803963,"semimajor_km":6843.5918661289,"source":"CELESTRAK","updated_at":"2026-09-20T09:00:43.784526Z"}}}